Wind_Speed
87 88 89 91 92 93 94 95 95 94 94 94 93 91 90 88 86 83 81 78 75 73 71 68 66 64 62 60 59 58 57 57 56 55 55 54 54 53 52 52 51 51 50 50 49 49 48 47 46 46 45 44 44 44 43 43 43 43 43 44 44 44 44 44 44 44 44 45 45 46 47 48 50 51 53 54 56 57 58 60 61 62 64 65 67 68
88 90 91 92 92 93 93 94 94 92 91 90 89 87 84 82 79 77 74 71 69 67 64 62 60 59 57 57 56 55 55 55 54 54 53 53 52 51 51 50 50 49 49 48 47 46 45 44 43 43 42 42 41 41 41 41 42 42 42 42 42 42 42 42 42 42 42 42 42 42 43 44 44 45 47 48 49 50 52 53 54 55 56 58 59 61
90 91 92 92 92 92 91 91 90 89 87 85 83 81 78 75 73 70 67 65 63 61 59 57 56 56 55 55 55 54 54 54 54 53 52 51 51 50 50 49 48 48 47 45 44 43 42 41 40 40 40 40 40 40 41 41 41 42 42 42 42 42 42 42 42 42 41 41 41 41 41 41 41 42 42 43 44 45 46 46 47 48 49 50 52 53
90 91 92 92 91 90 89 87 86 84 82 79 77 75 72 69 66 63 61 58 57 56 56 55 55 55 55 55 55 54 54 54 53 52 51 51 50 49 48 48 47 45 44 43 41 40 39 39 39 39 39 39 40 41 41 42 42 42 43 43 43 43 43 43 42 42 42 42 41 41 41 40 40 40 40 40 41 41 42 42 42 43 43 44 45 47
91 91 91 90 89 88 86 84 81 79 77 74 71 68 65 63 60 58 56 54 54 54 54 55 55 55 55 55 55 54 53 53 52 51 50 50 49 48 47 46 44 43 41 40 39 38 38 38 38 39 39 40 41 41 42 42 43 43 43 43 44 44 44 43 43 43 43 43 42 42 41 41 41 40 40 40 40 40 40 40 40 40 41 41 42 43
90 90 89 88 86 84 82 79 77 74 71 68 65 62 59 57 55 54 53 53 53 54 54 55 55 55 55 54 54 53 52 51 50 49 49 48 47 46 45 43 41 40 38 37 37 37 37 37 38 39 40 40 41 41 42 42 42 43 43 43 43 43 43 43 43 43 43 43 42 42 42 41 41 41 40 40 40 40 40 40 40 41 41 41 41 41
89 88 87 84 83 80 77 74 71 68 65 63 60 58 55 53 52 52 52 52 53 53 54 54 54 54 53 52 51 50 49 49 48 47 46 46 45 43 42 40 39 37 36 36 36 37 37 38 39 39 40 40 40 41 41 41 41 41 41 41 41 41 41 41 41 41 41 41 41 41 41 41 40 40 40 40 40 40 40 41 41 41 42 42 41 41
87 86 84 81 78 76 73 70 66 62 59 57 56 54 52 51 51 51 51 51 52 52 52 52 52 51 50 49 48 47 46 46 45 44 44 43 42 40 39 38 37 36 36 36 37 37 38 39 39 39 39 40 40 39 39 39 39 38 38 38 37 37 37 38 38 38 39 39 39 39 39 39 39 39 40 40 40 40 41 41 41 42 42 42 42 41
84 82 80 77 74 70 67 65 62 58 55 53 52 51 50 49 49 50 50 50 50 50 50 49 48 47 46 45 44 44 43 43 42 41 41 40 39 38 37 36 36 36 37 37 38 39 39 39 39 39 39 39 39 38 38 37 37 36 35 35 34 34 34 35 35 36 36 36 37 37 37 38 38 38 38 39 39 40 40 41 41 42 42 42 42 42
81 78 75 73 70 65 61 58 57 55 52 51 50 49 48 48 48 48 48 48 48 48 47 45 44 42 41 41 40 40 40 40 39 39 38 37 37 36 36 36 37 38 38 39 39 40 40 40 40 39 39 38 37 37 36 35 35 34 33 33 33 33 33 33 34 34 34 35 35 36 36 36 37 37 38 38 38 39 39 40 40 41 41 42 42 42
77 74 70 67 65 61 57 54 52 51 50 49 48 48 47 47 46 46 46 46 45 44 43 41 40 38 38 37 37 37 37 37 37 36 36 36 36 37 37 38 38 39 40 40 41 41 41 41 40 39 38 37 36 36 35 34 33 33 32 32 32 32 32 32 33 33 33 34 34 35 35 36 36 36 37 37 38 38 39 39 40 40 41 41 41 42
71 68 65 62 59 56 54 52 50 49 48 47 47 48 47 47 45 44 44 43 42 41 39 38 36 35 34 34 34 34 34 34 34 34 35 36 37 38 38 39 40 41 41 42 42 42 41 41 40 39 38 37 36 35 34 33 32 32 32 32 32 32 32 32 32 32 33 33 34 34 35 35 36 36 37 37 37 38 38 39 39 39 40 40 41 41
66 63 60 57 54 52 51 49 49 48 47 47 47 47 46 46 44 43 42 41 39 37 36 34 33 32 31 31 32 32 32 32 32 33 35 36 38 39 40 40 41 42 42 42 42 42 41 40 39 38 37 36 35 34 33 32 32 32 32 32 32 32 32 32 32 32 33 33 34 34 34 35 35 36 36 37 37 38 38 38 38 39 39 39 39 40
62 59 56 53 51 50 49 48 47 47 47 47 46 46 45 44 43 42 40 39 37 35 33 32 30 30 30 30 30 30 31 31 32 33 35 37 38 39 40 41 41 42 42 42 42 42 41 40 39 38 37 36 35 33 33 32 32 32 32 32 32 32 32 33 33 33 33 33 34 34 35 35 36 36 36 37 37 37 37 37 37 38 38 38 38 38
57 54 52 50 49 48 47 47 46 46 46 46 46 45 44 43 41 40 39 37 35 33 31 30 28 28 29 30 30 31 31 32 33 34 36 37 38 39 40 40 41 41 41 42 42 42 41 40 39 38 36 35 34 33 32 32 31 32 32 32 32 33 33 33 34 34 34 34 34 35 35 35 36 36 36 36 36 36 36 36 36 36 36 36 36 37
54 51 49 48 47 46 45 45 45 45 45 45 45 44 43 42 40 39 37 36 34 32 30 29 28 28 29 30 31 32 32 33 33 34 36 37 38 39 39 40 40 40 41 41 41 41 41 40 39 37 36 34 33 32 32 31 31 32 32 32 33 33 34 34 34 34 34 34 34 35 35 35 35 35 35 35 35 34 34 34 34 34 35 35 35 36
51 49 47 46 45 45 44 44 45 45 44 44 43 42 42 41 39 38 37 35 33 32 30 29 28 28 29 31 32 33 34 34 34 35 35 36 37 38 39 39 39 39 39 39 40 40 40 39 38 36 35 34 33 32 32 32 32 32 32 33 33 34 34 34 34 34 34 34 34 34 34 34 34 34 34 33 33 33 33 32 32 33 33 34 34 35
49 47 46 45 44 44 44 44 44 44 44 43 42 41 40 39 39 38 37 35 34 32 31 30 30 30 30 32 33 34 35 35 35 35 35 35 36 37 37 38 38 37 38 38 38 39 39 38 37 35 34 33 33 32 32 32 32 32 33 33 34 34 34 34 34 34 34 33 33 33 33 32 32 32 32 32 32 31 31 31 31 31 32 33 33 34
47 46 45 45 44 44 44 44 44 44 43 42 42 40 40 39 38 37 37 36 35 34 33 32 32 31 32 33 34 35 36 36 36 35 35 35 35 35 36 36 36 36 36 36 37 38 38 37 36 35 34 33 33 32 32 32 33 33 33 34 34 34 35 34 34 34 33 33 32 32 31 31 31 31 31 31 31 31 31 30 31 31 31 32 32 33
46 45 44 44 44 44 44 43 43 43 43 42 41 40 40 39 38 37 37 36 36 35 34 34 33 33 34 35 35 36 37 37 37 36 35 35 34 34 34 35 35 34 34 35 36 36 37 36 35 35 34 34 33 33 33 33 33 33 34 34 34 34 34 34 34 33 33 32 32 31 31 30 30 30 30 30 30 30 30 30 30 31 31 31 32 32
46 45 44 44 44 44 44 43 42 42 42 42 41 41 40 39 38 38 37 37 37 36 36 36 35 35 35 36 37 37 38 38 38 38 37 35 34 33 33 33 33 33 33 33 35 36 36 36 35 35 35 35 34 34 34 34 34 34 34 34 34 34 34 34 33 33 32 32 31 31 30 30 30 29 29 30 30 30 30 30 30 31 31 31 31 32
46 45 44 44 44 44 43 43 42 42 42 42 42 41 40 40 39 39 38 38 38 38 38 37 37 37 37 38 38 38 39 40 40 39 38 37 35 33 32 33 33 32 32 32 33 35 35 35 35 35 35 35 35 35 35 35 35 35 35 35 34 34 34 33 33 32 32 31 31 31 30 30 30 30 30 30 30 30 30 30 31 31 31 31 31 31
46 45 45 44 44 44 43 43 42 42 42 42 42 41 41 40 40 40 39 39 39 39 39 39 39 39 39 39 39 40 40 41 41 41 40 39 36 33 32 32 32 32 31 31 32 34 34 35 35 35 36 36 37 37 37 36 36 36 35 35 35 34 34 33 32 32 32 31 31 31 30 30 30 30 30 30 30 30 30 30 31 31 31 31 31 31
46 45 45 44 44 44 43 42 42 41 41 41 41 41 41 41 40 40 40 40 40 40 40 40 40 40 40 40 40 41 41 41 42 42 41 39 37 34 33 32 32 31 31 31 32 33 34 34 35 36 36 37 38 38 38 38 37 37 36 36 35 34 33 33 32 32 31 31 31 31 30 30 31 31 31 31 31 31 30 30 31 31 31 31 31 31
46 45 45 44 44 43 43 42 42 41 41 41 41 41 41 41 40 40 40 40 40 40 40 40 40 40 40 40 41 41 41 41 41 41 41 39 37 35 33 33 33 32 32 32 32 33 33 34 35 35 37 38 39 39 39 39 38 38 37 36 35 34 33 32 31 31 31 30 30 30 30 31 31 31 31 31 31 31 30 30 30 30 30 30 30 30
46 45 44 44 43 43 43 42 42 41 41 41 41 41 40 40 40 40 40 40 40 40 40 40 40 40 40 40 40 40 40 40 40 40 40 39 37 35 34 33 33 34 33 33 33 33 33 34 34 35 36 38 39 39 40 39 39 38 37 36 35 34 33 32 31 30 30 30 30 30 30 31 31 31 31 31 31 31 30 30 30 30 30 30 30 30
45 45 44 43 43 43 43 42 42 41 41 41 41 41 40 40 40 40 40 40 40 40 40 40 39 39 39 39 39 39 39 39 39 39 38 38 37 35 34 34 34 35 34 33 33 33 33 34 34 35 36 37 38 39 39 39 39 38 37 36 35 33 32 31 30 29 29 29 29 29 30 30 31 31 31 31 31 30 30 30 29 29 29 29 29 29
44 44 43 43 43 43 43 42 42 41 41 41 41 41 41 41 41 40 40 40 40 40 40 40 40 39 39 39 39 38 39 39 38 38 38 38 37 35 34 34 35 35 35 34 34 33 33 33 34 35 36 37 38 38 39 39 39 38 37 36 35 33 32 31 30 29 28 28 28 28 29 30 31 31 31 31 31 30 30 29 29 29 28 28 28 28
43 42 42 42 42 42 42 42 42 41 41 41 41 41 41 41 41 41 41 41 41 41 41 41 40 40 40 40 39 39 38 38 38 38 38 38 36 35 34 35 35 35 35 35 34 33 33 33 34 35 35 36 37 38 38 39 38 38 37 36 35 34 33 31 29 28 27 27 27 28 29 29 30 31 31 31 30 30 29 29 28 28 28 27 27 27
42 41 41 41 41 42 42 42 42 42 41 41 41 41 42 42 42 42 41 41 41 41 41 41 41 40 40 40 40 39 38 38 37 38 38 37 36 35 34 34 34 34 34 35 34 33 33 32 33 34 35 36 37 37 38 38 38 38 38 37 36 35 34 32 29 28 27 26 26 27 28 29 30 30 30 30 30 30 29 29 28 27 27 27 26 26
41 40 40 41 41 42 42 42 42 42 42 42 42 42 42 42 42 41 41 41 41 41 41 40 40 40 40 40 39 39 37 36 36 37 37 37 36 35 34 34 33 33 33 34 34 33 32 31 32 33 34 35 36 36 37 37 38 38 38 38 38 37 35 33 30 28 26 26 26 26 27 29 29 30 30 30 30 29 29 28 27 27 26 26 25 25
40 40 40 40 41 42 42 43 43 43 43 42 42 42 41 41 41 40 40 40 40 40 39 39 39 38 38 38 38 38 36 36 35 36 36 36 36 35 34 34 33 33 33 33 34 33 32 31 31 32 33 34 35 35 36 36 37 38 38 39 39 38 37 34 31 29 27 26 26 26 27 28 29 29 30 30 30 29 29 28 27 26 25 25 25 24
40 40 40 40 41 42 42 42 43 42 42 42 41 41 40 40 39 39 39 39 38 38 38 38 37 37 37 37 37 36 36 35 35 36 36 37 36 35 35 34 34 33 33 33 33 33 32 31 31 31 32 32 33 33 34 35 36 37 38 39 39 39 38 36 33 30 28 26 26 26 27 28 28 29 29 29 29 29 28 27 26 26 25 24 24 24
39 39 40 40 41 41 41 41 41 41 41 40 40 39 39 38 38 38 38 38 38 38 38 38 37 37 37 37 37 37 36 36 36 37 37 38 38 37 36 36 36 35 35 34 34 34 33 32 31 31 31 31 32 32 33 33 35 36 37 38 39 39 38 37 34 31 29 27 26 26 27 27 28 28 29 29 29 28 28 27 26 25 24 24 23 23
39 39 39 40 40 40 40 40 39 39 39 38 38 38 38 37 37 37 37 38 38 38 38 38 38 38 38 38 38 38 38 37 38 38 39 40 40 40 39 39 38 38 38 37 36 36 35 34 33 33 32 32 31 31 32 33 34 35 36 37 38 39 39 37 35 33 30 28 27 27 27 27 27 28 28 28 28 28 27 27 26 25 24 23 22 22
38 38 38 38 38 38 38 37 37 37 37 37 37 37 37 38 38 38 38 39 39 40 40 40 40 40 40 40 40 40 40 39 39 40 41 41 42 42 42 41 41 40 40 40 39 38 37 36 35 34 34 33 33 32 32 33 34 34 36 37 38 39 39 38 36 34 31 29 28 27 27 27 27 27 28 28 28 28 27 26 25 24 23 22 22 21
37 37 36 36 36 36 36 36 36 36 36 37 37 38 38 39 39 40 40 40 41 41 41 42 42 42 42 42 42 42 42 41 41 42 42 43 43 44 44 43 42 42 42 42 41 40 40 39 38 36 35 35 34 34 34 34 34 35 35 36 38 38 39 38 36 34 32 30 29 28 28 27 27 27 27 27 27 27 26 26 25 24 23 22 21 20
36 35 35 34 34 34 34 35 35 36 37 37 38 39 39 40 41 41 42 42 42 42 43 43 43 43 43 43 43 43 43 42 42 42 43 43 44 44 44 44 43 43 43 43 43 42 42 41 40 38 37 36 35 36 36 36 36 35 35 36 37 38 39 38 37 35 33 31 30 29 28 27 27 27 27 27 27 26 26 25 24 23 22 22 21 20
34 34 33 33 34 34 34 35 36 37 37 38 39 40 41 41 42 42 42 43 43 43 43 43 43 43 43 43 43 43 43 43 43 42 43 43 43 44 44 43 43 43 43 43 43 43 42 42 41 40 38 37 37 37 37 37 37 36 36 36 37 38 39 39 38 36 33 32 31 30 28 28 27 27 27 27 26 26 25 24 24 23 22 21 20 20
33 33 33 33 34 35 36 36 37 38 39 40 40 41 41 42 42 42 42 42 42 42 42 42 42 42 42 42 42 42 42 42 42 42 42 42 42 42 42 42 42 42 42 42 42 42 42 42 41 40 39 38 38 37 37 37 37 36 36 36 36 37 38 39 38 36 34 32 31 30 29 28 27 27 26 26 26 25 25 24 23 23 22 21 20 19
33 33 34 34 35 36 37 38 38 39 39 40 40 40 40 41 41 41 41 41 41 41 41 41 41 41 41 41 41 41 42 42 42 42 42 42 42 42 42 42 41 41 41 42 42 42 42 42 41 41 40 39 38 38 37 36 36 36 35 35 36 37 38 39 38 37 35 33 31 30 29 28 27 27 26 26 26 25 24 24 23 22 22 21 20 19
33 34 35 35 36 37 38 38 38 38 39 39 39 39 39 39 39 39 39 39 40 40 40 40 40 40 40 40 41 41 42 42 43 43 43 43 43 42 42 42 42 42 42 42 42 41 41 41 41 41 40 40 39 38 37 36 35 35 34 34 35 36 38 38 38 37 35 33 32 31 29 28 27 27 26 26 25 25 24 23 23 22 22 21 20 19
34 35 35 36 37 37 37 37 37 37 37 37 37 38 38 38 38 38 39 39 39 39 40 40 40 40 41 41 41 42 43 43 44 44 44 44 44 44 43 43 43 43 43 42 42 42 41 41 41 41 40 40 39 39 37 36 35 34 33 33 34 35 37 38 38 37 35 34 32 31 30 28 27 27 26 26 25 25 24 23 23 22 22 21 20 19
34 35 36 36 36 36 36 36 36 36 37 37 37 38 38 38 39 39 39 39 40 40 40 41 41 41 42 42 42 43 44 45 45 45 46 45 45 45 45 45 44 44 44 43 42 42 41 41 41 41 40 40 39 38 37 35 34 33 32 32 33 35 36 37 37 37 36 34 33 31 30 28 27 27 26 26 25 25 24 23 23 23 22 21 20 19
34 35 35 35 35 35 35 36 36 37 37 38 38 39 39 39 39 40 40 40 40 41 41 42 42 42 43 43 44 44 45 46 46 47 47 47 47 47 47 46 46 45 45 44 43 43 42 41 41 40 40 39 38 37 36 34 33 32 31 32 33 35 36 37 37 36 35 34 33 31 30 28 27 27 26 26 25 24 24 24 23 23 22 22 21 20
34 34 34 34 35 35 36 36 37 37 38 38 39 39 40 40 40 40 41 41 41 42 42 43 43 44 44 45 45 46 46 47 48 48 48 48 48 48 48 47 47 46 46 45 44 43 42 41 40 39 39 38 37 36 34 33 31 31 31 32 33 34 36 36 36 36 35 34 33 31 29 28 27 26 26 25 25 25 24 24 24 23 22 22 21 20
34 34 34 35 35 36 36 37 37 38 38 39 39 39 40 40 41 41 41 42 42 43 43 44 45 45 46 46 47 47 47 48 48 48 49 49 49 48 48 48 47 47 46 45 44 43 42 41 40 39 38 36 35 33 32 31 30 30 31 32 33 34 35 35 36 35 35 34 32 31 29 28 27 26 26 26 25 25 25 24 24 23 23 22 21 20
34 34 35 35 35 36 36 37 37 38 38 39 39 40 40 41 41 42 42 43 44 44 45 46 46 47 47 47 47 47 47 47 47 48 48 48 48 47 47 47 46 45 45 44 43 42 41 40 39 38 36 35 33 31 30 29 29 30 30 31 32 33 34 35 35 34 34 33 32 30 29 27 27 26 26 26 25 25 25 24 24 24 23 22 21 20
34 34 35 35 35 36 36 37 37 38 38 39 39 40 41 42 42 43 44 44 45 46 46 47 47 47 47 47 47 47 46 46 46 45 45 45 45 45 45 44 44 43 42 41 41 40 39 38 37 36 34 32 30 29 28 28 28 29 30 31 32 32 33 33 34 33 33 32 31 30 28 27 27 26 26 26 25 25 25 25 24 24 23 22 21 20
34 34 35 35 35 36 36 37 37 38 39 39 40 41 42 43 44 45 45 46 46 47 47 47 47 46 46 45 45 44 43 43 43 42 42 42 42 42 41 41 41 40 39 38 38 37 36 36 35 34 32 30 29 27 27 27 28 28 29 30 30 31 32 32 32 32 32 31 30 29 28 27 26 26 26 26 26 25 25 25 24 24 23 22 21 20
34 34 34 35 35 36 36 37 38 39 39 40 41 42 43 45 45 46 46 47 47 46 46 45 44 43 43 42 41 40 40 39 39 39 39 39 38 38 38 38 37 37 36 36 35 34 33 33 32 31 30 29 28 27 27 27 27 28 28 29 29 30 30 31 31 31 31 30 29 28 27 27 26 26 26 26 26 25 25 24 24 24 23 22 22 21
Wind_Direction
300 300 300 300 300 300 299 299 298 298 297 296 296 295 294 294 293 293 292 291 290 290 289 288 288 287 286 285 285 284 283 283 283 283 283 283 283 283 283 283 283 283 283 283 282 281 281 280 279 278 278 277 277 276 276 275 275 274 274 274 273 273 273 273 272 272 271 270 269 268 267 266 265 264 264 264 263 263 263 263 262 262 261 261 260 259
301 301 301 301 300 300 300 299 298 297 297 296 296 295 294 293 293 292 291 290 290 289 288 287 287 286 285 284 284 283 283 283 283 282 282 282 282 282 282 282 282 282 282 282 281 280 279 279 278 277 277 276 276 275 275 274 274 274 273 273 273 273 273 273 272 272 272 271 271 270 269 268 267 266 266 265 265 265 264 264 264 264 263 262 261 260
301 301 301 301 300 300 299 299 298 297 296 296 295 294 294 293 292 291 291 290 289 288 288 287 286 285 285 284 284 283 283 282 282 282 282 282 281 281 282 282 282 281 281 280 280 279 278 277 277 276 276 275 275 275 274 274 274 273 273 273 273 273 272 272 272 272 272 272 272 271 271 270 269 268 268 268 267 267 267 266 266 265 265 264 263 261
302 302 301 301 300 300 299 298 298 297 296 295 295 294 293 293 292 291 290 289 288 288 287 287 286 286 285 285 284 283 283 282 282 281 281 281 281 281 281 281 281 280 280 278 277 277 276 276 275 275 275 275 274 274 274 274 274 273 273 273 273 272 272 272 272 272 272 272 272 272 271 271 271 270 270 269 269 269 268 268 267 266 265 265 263 262
302 302 301 301 300 300 299 298 297 296 296 295 294 293 293 292 291 290 289 289 288 287 287 287 287 286 286 285 284 283 282 282 281 281 281 280 280 281 281 281 280 279 278 277 276 275 275 274 274 274 275 274 274 274 274 274 273 273 273 273 272 272 272 272 272 271 271 271 271 271 271 271 271 270 270 269 269 269 269 268 268 267 266 265 264 262
302 302 301 300 300 299 299 298 297 296 295 294 293 293 292 291 290 290 289 288 288 288 288 288 288 287 287 286 284 283 282 282 281 280 280 280 280 281 280 280 279 278 277 276 275 275 274 274 274 275 274 274 274 274 273 273 273 272 272 272 272 272 271 271 271 271 271 271 271 271 270 270 270 269 269 269 269 268 268 268 268 267 266 265 264 263
302 302 301 300 300 299 298 297 296 295 294 293 293 292 291 290 290 289 289 289 289 290 290 289 289 288 287 286 285 284 282 281 281 281 281 281 281 281 280 279 278 277 276 276 275 275 276 276 276 275 275 274 274 273 273 272 272 271 271 271 271 271 271 271 271 271 271 271 270 270 270 269 269 269 268 268 268 268 267 267 267 267 266 266 265 264
302 301 301 300 299 299 298 297 296 294 293 292 291 291 290 290 289 289 290 290 291 291 291 290 290 289 288 286 285 284 283 282 281 281 281 281 281 280 280 279 278 277 277 277 277 277 277 277 277 276 276 275 274 273 272 272 271 270 270 270 270 271 271 271 271 271 271 271 270 270 269 269 268 268 268 267 267 267 267 267 267 267 267 267 267 266
301 301 300 299 298 298 297 296 295 293 292 291 290 290 289 289 289 290 291 291 292 292 292 291 290 289 288 286 285 284 283 282 282 281 281 281 281 280 279 279 278 278 278 278 279 279 279 278 278 277 276 276 275 274 272 271 271 270 270 270 270 271 271 272 272 271 271 271 270 270 269 269 268 268 268 267 267 267 266 266 267 267 267 267 267 267
301 300 300 299 298 297 296 295 293 292 291 290 290 289 289 289 289 290 291 292 292 292 292 291 290 288 287 285 284 283 283 282 282 281 281 281 280 280 280 280 279 279 280 280 280 280 279 279 279 278 277 276 275 274 273 272 271 270 271 271 272 273 273 273 273 272 271 270 270 269 269 268 268 268 268 267 267 267 267 266 266 267 267 267 267 267
300 300 299 298 297 296 295 293 292 291 290 290 290 290 289 289 290 291 292 292 292 292 292 291 289 288 286 284 283 282 282 282 281 281 281 281 281 281 281 281 281 281 281 281 281 280 280 279 279 278 278 277 276 275 273 272 271 271 272 273 274 275 275 275 274 273 272 271 270 269 268 268 268 268 267 268 267 267 267 267 267 267 267 267 267 267
299 298 298 297 296 295 294 293 291 290 290 290 290 290 290 290 291 291 292 292 292 292 291 290 289 287 285 283 282 281 281 281 281 281 281 282 282 282 283 283 283 283 282 282 282 281 280 280 279 278 277 277 275 274 273 272 271 272 273 275 276 276 276 276 275 274 272 271 270 269 268 267 267 267 267 268 268 268 268 268 268 267 267 267 266 266
298 297 297 296 294 293 292 291 291 291 290 290 290 290 290 291 291 291 291 292 292 292 291 289 287 286 284 282 281 280 280 280 281 282 283 283 284 285 285 285 285 285 284 283 283 282 281 280 279 278 276 275 274 273 271 271 271 272 273 275 276 277 277 276 276 274 272 271 269 268 267 267 267 267 267 268 269 269 269 269 269 268 267 267 266 266
297 296 295 294 293 292 291 290 290 290 290 291 290 290 290 290 290 290 291 291 291 291 289 287 285 284 282 281 280 280 280 280 282 283 283 284 285 286 287 287 286 286 285 284 282 281 280 279 278 276 275 273 272 270 270 270 270 271 273 274 276 277 277 277 276 274 273 271 269 268 267 267 267 267 268 268 269 270 270 270 269 269 268 267 266 265
295 294 293 292 291 290 289 289 289 290 290 290 290 289 289 288 288 289 289 289 289 288 287 285 283 281 280 280 280 280 280 281 282 283 284 284 285 286 287 286 286 285 284 282 281 280 279 278 277 275 273 271 270 269 268 269 270 271 273 274 276 277 277 277 276 275 274 272 270 268 267 267 267 267 267 268 269 269 269 269 269 269 268 267 266 265
294 293 291 290 289 289 288 289 288 289 289 289 289 288 288 287 287 286 286 287 286 286 284 282 280 279 278 278 279 279 280 281 282 283 284 284 285 286 286 286 285 284 283 281 280 279 279 278 276 274 272 270 268 267 268 269 270 271 273 275 276 277 278 278 278 277 275 273 271 269 268 267 267 267 267 267 268 268 268 268 268 268 267 267 266 265
293 292 291 290 289 289 288 288 288 288 288 287 287 286 286 285 285 284 284 283 283 282 280 278 277 276 276 277 277 278 280 281 282 283 283 283 284 285 286 285 284 283 282 281 280 279 278 277 276 273 271 269 267 267 267 269 270 272 274 275 277 278 279 279 279 278 277 275 273 271 269 268 267 267 267 267 267 267 268 268 268 268 268 267 266 265
293 292 291 290 289 289 289 289 288 288 287 287 286 285 284 283 283 282 281 280 279 278 277 276 274 274 274 274 275 277 279 280 281 282 282 282 283 284 285 285 284 283 282 280 279 279 278 277 275 273 270 268 266 266 267 269 271 272 274 275 277 278 279 280 279 279 278 276 274 272 271 269 268 267 267 267 267 268 268 269 269 269 269 268 267 266
292 291 291 290 290 290 289 289 289 288 287 287 286 285 283 282 281 279 278 277 276 275 274 273 273 272 272 273 274 276 277 279 280 281 282 282 282 283 284 285 284 283 281 280 279 278 277 276 274 272 270 268 267 267 268 269 271 272 274 276 277 278 279 280 279 279 278 277 275 273 272 270 269 268 268 268 268 269 270 270 271 271 271 270 269 267
292 291 291 291 291 290 290 289 289 288 288 287 286 285 284 282 280 278 277 275 274 273 272 272 271 271 272 272 274 275 277 278 279 281 282 282 282 283 283 283 282 281 280 279 278 277 276 275 274 272 270 268 268 268 269 270 271 273 274 276 277 278 279 279 279 278 277 276 275 274 273 271 271 270 270 270 270 270 271 271 272 272 272 271 270 269
292 291 291 291 291 291 291 290 290 289 288 288 287 286 284 283 280 278 276 274 273 272 271 270 270 271 272 273 274 275 276 278 280 281 282 283 283 283 282 281 280 279 278 276 275 275 274 274 273 272 271 270 269 269 270 271 272 273 274 276 277 277 278 278 278 277 276 276 275 274 273 273 272 272 271 271 271 272 272 272 273 273 273 272 271 271
292 292 292 292 292 292 291 291 290 289 289 288 287 286 285 284 281 279 277 274 272 271 270 270 270 271 272 273 274 275 277 278 280 282 283 284 284 283 281 280 278 277 275 274 273 272 272 272 272 272 271 271 271 271 271 272 273 274 274 275 276 276 276 277 276 276 275 275 274 274 274 273 273 273 273 272 272 272 273 273 273 273 273 273 272 271
292 292 292 293 293 292 292 291 290 289 288 288 287 286 285 284 282 280 278 276 274 272 271 271 271 271 272 273 274 275 277 279 280 282 283 284 284 283 281 278 276 275 273 271 270 270 270 270 271 271 271 271 271 271 272 272 273 274 274 275 275 275 275 275 275 274 274 274 273 273 273 273 273 273 273 273 273 273 273 273 273 273 273 273 272 272
292 292 292 293 293 293 292 291 290 289 288 287 286 286 285 284 283 281 280 278 276 274 273 272 271 271 272 273 275 276 277 278 280 281 282 284 284 283 281 278 276 274 272 270 268 268 268 268 269 269 270 270 271 271 272 272 273 273 274 274 274 274 273 273 273 273 272 272 272 272 272 272 272 272 272 272 272 273 273 273 273 273 273 273 272 272
292 292 292 293 293 292 291 290 289 288 287 287 286 285 285 284 283 282 281 279 278 277 275 274 273 273 273 274 275 276 277 278 279 281 282 283 284 283 281 279 276 274 272 269 268 267 267 267 267 268 269 269 270 271 271 272 272 273 273 273 273 272 272 271 271 271 270 270 270 270 271 271 271 271 271 271 272 272 273 273 273 273 273 272 272 271
291 292 292 292 292 291 290 289 288 288 287 287 286 286 285 284 283 283 282 281 281 280 278 277 275 275 275 275 276 277 278 278 279 280 282 283 283 282 280 279 276 274 272 270 268 267 267 267 267 267 268 269 270 271 271 272 272 273 273 272 272 271 271 270 269 269 269 268 268 268 269 269 269 269 270 271 271 272 272 273 273 273 273 272 272 271
291 291 291 291 290 289 289 288 288 288 288 287 286 286 285 284 284 284 283 283 283 282 281 280 279 278 277 277 278 278 278 279 280 281 281 282 282 281 280 278 276 274 272 271 269 268 268 268 267 267 268 269 270 271 271 272 272 273 273 272 272 271 270 269 268 267 267 267 266 266 267 267 268 268 269 270 271 271 272 273 273 273 273 273 272 271
290 290 290 290 289 288 288 288 288 288 287 287 286 285 285 284 284 284 284 283 283 282 282 281 281 280 279 279 279 279 279 279 280 281 281 281 280 280 279 277 276 275 273 272 271 270 269 269 269 268 268 269 269 271 271 272 273 273 273 273 272 271 270 268 267 266 266 265 265 265 265 265 266 267 268 269 270 271 272 273 273 273 273 273 272 271
289 290 290 289 288 288 288 287 287 287 287 286 286 285 285 284 284 284 284 283 283 282 282 282 282 281 281 280 280 279 279 280 280 281 281 280 280 279 278 276 276 275 274 273 272 270 270 270 270 269 269 269 269 270 271 272 273 273 274 273 272 271 270 269 267 266 265 264 263 263 263 263 264 265 266 268 269 270 271 272 273 273 273 273 272 271
289 289 289 289 288 288 287 287 287 287 286 286 286 285 285 285 284 284 284 283 282 282 282 282 282 282 282 281 281 280 280 280 281 281 281 280 279 278 277 276 275 275 275 274 272 271 270 270 270 269 269 269 269 270 271 272 273 273 273 273 273 272 271 269 267 266 264 263 262 261 261 262 263 264 265 267 268 269 271 272 272 273 273 273 271 270
289 289 289 288 288 287 287 288 287 287 287 287 286 286 285 285 285 284 284 283 283 283 283 282 282 282 282 282 282 282 281 281 281 281 281 280 279 278 277 276 275 275 274 274 273 272 270 269 268 268 269 269 269 270 271 271 272 273 273 273 273 272 271 270 268 266 264 262 261 260 259 260 261 262 264 266 267 268 270 271 272 272 272 272 271 270
288 288 288 287 287 287 287 287 287 287 287 287 286 286 286 285 285 285 284 284 284 284 284 283 283 283 283 283 283 283 283 283 283 282 281 281 280 279 278 277 276 275 274 273 273 272 271 269 268 267 268 269 270 270 271 271 272 272 273 273 273 273 272 271 269 267 265 262 260 259 258 259 260 261 263 264 266 267 269 270 271 271 272 271 270 269
287 287 287 287 287 286 286 286 286 286 286 286 286 286 286 285 285 285 285 285 285 285 285 284 284 284 284 284 284 284 285 284 284 283 283 282 281 280 280 279 278 276 275 274 273 273 272 271 269 268 268 269 270 270 271 271 271 271 272 272 272 272 272 271 270 268 265 262 260 258 258 257 258 259 261 263 264 266 267 269 270 270 270 270 270 269
287 287 286 286 286 285 285 285 285 285 285 285 285 285 285 285 285 285 285 285 285 285 285 285 285 285 285 285 285 285 285 285 284 284 284 283 283 282 281 280 279 278 277 275 275 274 273 272 271 270 269 269 269 270 270 270 270 270 270 271 271 272 272 272 271 269 266 263 261 259 257 257 257 258 259 261 262 264 266 267 268 269 269 269 269 268
286 286 286 285 285 284 284 284 284 284 284 284 284 284 285 285 285 285 285 285 285 285 286 286 286 286 286 286 286 285 285 285 285 284 284 283 283 283 282 281 280 279 279 277 276 275 274 273 272 271 270 269 269 269 269 268 268 268 269 269 270 271 272 272 271 270 267 265 262 259 257 256 256 256 257 259 260 262 264 265 266 267 268 268 268 267
286 286 285 285 284 284 283 283 283 283 284 284 284 284 285 285 285 285 285 285 285 286 286 286 286 286 286 286 286 285 285 285 284 284 284 283 283 282 281 281 280 280 279 278 277 276 275 273 272 271 270 269 268 268 267 266 266 266 267 268 269 270 271 271 271 270 268 266 263 260 258 256 255 255 256 257 259 260 262 263 265 265 266 266 266 266
286 285 285 284 283 283 283 283 283 283 283 284 284 284 285 285 285 285 285 285 286 286 286 286 286 286 286 286 285 285 284 284 283 282 282 281 281 280 280 279 279 279 278 278 277 276 275 274 272 271 269 268 268 266 265 264 264 264 265 266 267 268 269 270 270 269 268 266 264 261 259 256 255 254 255 256 257 258 260 261 263 263 264 265 265 264
286 285 284 283 283 282 282 282 282 283 283 283 284 284 285 285 285 285 285 286 286 286 286 286 286 285 285 285 284 284 283 282 281 279 278 278 277 277 277 277 277 277 277 277 277 276 275 274 273 271 269 267 266 265 264 263 263 262 263 264 265 266 267 268 269 268 267 266 263 261 259 257 255 254 254 254 255 257 258 259 260 261 262 262 263 262
285 284 284 283 282 282 282 282 283 283 283 284 284 284 285 285 285 285 286 286 286 286 285 285 285 284 284 284 283 283 282 281 280 278 277 275 275 274 275 275 275 275 275 275 275 274 274 273 272 271 269 267 265 264 263 263 262 261 261 261 262 264 265 266 267 267 266 265 263 261 258 256 254 253 253 253 254 255 256 258 258 259 260 260 260 260
284 284 283 283 283 283 283 283 283 283 284 284 284 285 285 285 285 285 285 285 285 285 284 284 284 284 283 283 283 282 281 281 280 279 278 277 276 276 275 275 275 275 274 274 273 273 273 272 272 271 269 268 266 264 263 262 262 261 260 260 260 261 262 264 265 265 264 263 261 260 258 255 254 252 252 252 253 254 255 255 256 257 257 258 258 258
284 284 284 284 284 284 284 284 284 285 285 285 285 285 285 285 285 285 285 285 285 284 284 284 283 283 283 283 282 282 282 281 281 280 280 280 279 279 278 278 277 277 276 275 274 274 273 273 272 271 270 269 267 265 264 263 262 261 260 259 258 258 260 261 262 262 262 261 260 258 256 254 252 251 250 251 251 252 253 253 254 254 254 255 255 255
285 285 285 285 285 286 286 286 286 286 286 286 286 285 285 285 285 285 285 285 285 285 285 285 285 285 285 285 284 284 283 283 282 282 282 281 281 281 280 280 279 278 277 277 276 276 275 274 273 273 271 270 268 267 265 263 262 261 260 258 257 256 256 258 259 260 260 259 258 257 255 253 251 250 249 249 249 250 250 251 251 252 252 252 252 252
286 286 287 287 288 288 288 288 289 289 288 288 288 288 288 287 288 288 288 288 288 288 288 288 288 288 287 287 286 285 285 284 284 283 283 282 282 281 280 280 279 278 278 277 276 276 275 275 274 273 272 271 269 268 266 265 263 261 260 257 255 253 253 254 256 257 257 257 256 255 253 251 249 248 247 247 247 248 248 249 249 249 249 249 249 249
288 289 289 290 290 291 291 292 292 292 292 292 292 291 291 291 291 291 290 290 290 290 290 289 289 288 288 287 287 286 285 284 284 283 283 282 281 281 280 279 278 278 277 276 276 275 275 274 273 273 272 271 269 268 266 265 263 261 259 256 253 251 250 251 253 254 254 254 253 252 251 249 247 246 245 245 246 246 247 247 246 246 246 246 246 247
291 291 292 293 293 294 294 295 295 295 294 294 294 293 293 293 292 292 291 291 291 290 289 289 288 288 287 286 286 285 284 283 283 282 282 281 281 280 279 278 278 277 276 275 274 274 273 272 272 271 270 270 268 267 265 264 262 260 257 254 250 248 248 248 249 250 251 251 251 250 249 247 245 244 244 244 244 244 244 245 245 244 244 243 244 244
294 294 295 296 296 297 297 297 296 296 295 295 294 294 293 293 292 292 291 291 290 289 289 288 288 287 287 286 285 284 283 283 282 281 281 280 280 279 278 277 276 275 275 274 273 272 271 271 270 269 268 268 267 265 264 262 260 257 254 251 248 246 245 246 246 247 248 249 249 248 246 245 243 243 242 242 242 242 242 242 242 242 242 241 241 242
296 297 298 298 298 298 297 297 296 296 295 295 294 293 293 292 292 291 291 290 290 289 289 288 288 287 287 286 285 284 283 282 282 281 280 280 279 278 277 276 275 274 273 272 271 271 270 269 268 267 266 265 264 263 262 260 257 255 252 249 247 244 243 243 244 245 246 246 246 246 245 243 242 241 240 240 240 240 240 241 241 241 240 240 239 240
298 299 299 299 298 298 297 296 296 295 295 294 294 293 293 292 292 291 291 291 290 290 290 289 289 288 288 287 286 285 284 282 281 281 280 279 278 277 277 276 274 273 272 271 270 269 268 267 266 265 264 264 262 261 259 257 255 252 250 247 245 243 241 241 242 243 243 244 244 243 243 241 240 239 239 238 238 238 239 239 239 239 238 238 238 238
299 299 299 299 298 298 297 296 296 295 295 294 294 294 293 293 293 293 292 292 292 291 291 291 290 289 288 287 286 285 284 282 281 280 279 279 278 277 276 276 275 273 272 271 269 268 267 265 264 264 263 262 260 257 255 253 252 250 248 246 243 241 239 239 239 240 241 241 241 241 241 240 239 238 237 237 237 237 237 237 238 238 237 237 237 237
299 299 299 298 298 298 297 297 297 296 296 296 296 296 295 295 295 294 294 294 293 293 292 292 291 290 289 287 286 285 284 282 281 280 279 278 278 277 276 276 275 274 272 271 269 267 266 264 263 262 261 259 256 254 251 250 248 247 246 244 241 239 237 237 237 238 238 239 239 239 239 239 238 237 237 237 236 235 235 236 237 237 236 236 235 236
299 299 299 299 299 299 298 298 298 298 298 298 298 297 297 297 296 296 296 295 295 294 293 292 291 290 289 288 286 285 283 282 281 280 279 278 277 276 276 275 274 273 272 270 268 266 264 262 261 259 257 255 252 250 248 246 245 244 243 241 239 236 234 234 234 235 236 236 237 237 238 237 237 237 237 236 236 235 235 235 235 236 236 235 235 235
Height
5544 5541 5538 5535 5532 5529 5525 5521 5518 5514 5511 5508 5504 5502 5499 5496 5493 5490 5488 5486 5484 5482 5480 5479 5477 5476 5474 5473 5471 5469 5468 5467 5467 5466 5465 5465 5464 5464 5464 5463 5462 5461 5461 5460 5459 5459 5458 5458 5457 5456 5456 5455 5455 5455 5454 5454 5454 5454 5453 5453 5453 5453 5453 5452 5452 5453 5453 5453 5453 5453 5453 5453 5453 5454 5454 5454 5454 5454 5455 5455 5456 5457 5458 5459 5460 5462
5536 5533 5530 5527 5524 5520 5517 5513 5509 5505 5502 5499 5496 5494 5491 5489 5486 5484 5481 5479 5478 5476 5474 5473 5471 5470 5469 5467 5466 5465 5464 5463 5462 5462 5461 5461 5460 5460 5459 5459 5458 5457 5457 5456 5455 5454 5454 5454 5453 5453 5452 5452 5452 5451 5451 5450 5450 5450 5449 5449 5449 5449 5449 5449 5449 5449 5449 5449 5449 5449 5449 5449 5449 5449 5450 5450 5450 5450 5450 5451 5452 5453 5454 5454 5455 5456
5529 5525 5522 5519 5516 5513 5509 5505 5500 5497 5494 5491 5489 5486 5483 5482 5480 5478 5475 5474 5472 5470 5468 5467 5466 5465 5464 5462 5461 5460 5459 5459 5458 5457 5457 5457 5456 5456 5455 5455 5454 5454 5453 5452 5452 5451 5450 5450 5449 5449 5449 5449 5448 5448 5447 5447 5447 5446 5446 5446 5446 5445 5445 5445 5445 5445 5445 5445 5445 5445 5445 5445 5445 5446 5446 5446 5446 5446 5446 5447 5447 5448 5449 5449 5450 5450
5521 5517 5514 5510 5507 5504 5501 5497 5493 5489 5486 5484 5481 5479 5477 5475 5474 5472 5470 5469 5467 5465 5463 5462 5461 5460 5459 5458 5457 5456 5455 5454 5454 5453 5453 5452 5452 5451 5451 5451 5450 5450 5449 5449 5448 5448 5447 5447 5446 5446 5445 5445 5445 5444 5444 5444 5443 5443 5443 5442 5442 5442 5442 5442 5442 5442 5442 5442 5442 5442 5442 5442 5442 5442 5442 5442 5442 5443 5443 5443 5443 5444 5444 5445 5445 5446
5513 5509 5505 5502 5499 5496 5493 5489 5486 5483 5479 5477 5475 5473 5471 5469 5468 5466 5465 5463 5462 5460 5459 5457 5456 5455 5454 5453 5452 5451 5450 5450 5449 5449 5448 5448 5448 5447 5447 5447 5446 5446 5446 5445 5445 5444 5444 5444 5443 5443 5442 5442 5442 5441 5441 5440 5440 5439 5439 5439 5439 5439 5439 5439 5439 5439 5439 5439 5439 5439 5439 5439 5439 5439 5439 5439 5439 5439 5439 5439 5440 5440 5440 5440 5441 5441
5504 5501 5497 5494 5491 5488 5485 5482 5479 5476 5473 5471 5469 5467 5466 5465 5463 5461 5460 5458 5457 5456 5454 5453 5452 5451 5449 5449 5448 5447 5446 5445 5445 5444 5444 5444 5444 5443 5443 5443 5443 5442 5442 5442 5442 5441 5441 5441 5440 5440 5439 5439 5438 5438 5437 5437 5437 5436 5436 5436 5435 5435 5435 5435 5435 5435 5435 5435 5435 5436 5436 5436 5436 5436 5436 5436 5436 5436 5436 5436 5436 5436 5436 5436 5437 5437
5496 5492 5489 5486 5483 5480 5478 5475 5473 5470 5468 5466 5464 5463 5462 5460 5459 5457 5455 5454 5453 5451 5450 5449 5447 5446 5445 5444 5443 5442 5442 5441 5440 5440 5440 5440 5439 5439 5439 5439 5439 5439 5439 5439 5438 5438 5438 5437 5437 5436 5436 5435 5435 5434 5434 5434 5433 5433 5433 5433 5432 5432 5432 5432 5432 5432 5432 5432 5432 5432 5432 5432 5433 5433 5433 5433 5433 5433 5433 5433 5433 5433 5433 5433 5433 5434
5488 5484 5481 5478 5476 5474 5472 5469 5466 5464 5463 5461 5460 5458 5457 5456 5454 5453 5451 5450 5449 5447 5446 5444 5443 5442 5440 5439 5438 5438 5437 5437 5436 5436 5436 5436 5436 5436 5436 5436 5436 5435 5435 5435 5435 5435 5434 5434 5433 5433 5432 5432 5432 5431 5431 5430 5430 5430 5430 5430 5429 5429 5429 5429 5429 5429 5429 5429 5429 5429 5429 5429 5429 5429 5429 5429 5430 5430 5430 5429 5429 5429 5429 5430 5430 5430
5480 5478 5474 5471 5469 5468 5467 5464 5461 5458 5457 5456 5455 5454 5454 5452 5450 5449 5448 5447 5445 5443 5442 5440 5439 5438 5436 5435 5434 5434 5433 5433 5433 5433 5432 5432 5432 5432 5432 5432 5432 5432 5432 5432 5431 5431 5431 5430 5430 5429 5429 5429 5428 5428 5428 5427 5427 5427 5427 5427 5427 5427 5427 5427 5426 5426 5426 5426 5426 5426 5426 5426 5426 5426 5426 5426 5426 5426 5427 5427 5427 5427 5427 5427 5427 5427
5472 5470 5468 5465 5463 5461 5461 5460 5457 5453 5452 5451 5450 5450 5449 5448 5447 5445 5444 5443 5441 5439 5438 5437 5436 5435 5433 5432 5431 5430 5430 5429 5429 5429 5429 5429 5429 5429 5429 5429 5429 5429 5429 5428 5428 5427 5427 5426 5426 5426 5425 5425 5425 5424 5424 5424 5424 5424 5424 5424 5424 5424 5424 5424 5424 5424 5423 5423 5423 5423 5423 5423 5423 5423 5423 5423 5423 5424 5424 5424 5424 5424 5424 5424 5424 5424
5465 5463 5461 5459 5457 5455 5454 5454 5452 5450 5448 5447 5446 5445 5444 5444 5443 5442 5440 5439 5438 5436 5434 5433 5432 5432 5430 5429 5428 5428 5427 5427 5427 5426 5426 5426 5426 5426 5426 5426 5425 5425 5425 5424 5424 5424 5423 5423 5422 5422 5422 5421 5421 5421 5421 5421 5421 5421 5421 5421 5421 5421 5421 5421 5421 5421 5420 5420 5420 5420 5420 5420 5420 5420 5420 5420 5420 5420 5420 5420 5421 5421 5421 5421 5421 5421
5459 5458 5456 5454 5452 5451 5449 5448 5447 5445 5444 5444 5442 5441 5439 5439 5439 5438 5437 5435 5434 5433 5431 5430 5429 5428 5428 5427 5425 5425 5425 5424 5424 5424 5423 5423 5422 5422 5422 5422 5422 5422 5421 5421 5420 5419 5419 5419 5419 5418 5418 5418 5418 5418 5418 5418 5418 5418 5418 5418 5418 5418 5418 5418 5418 5418 5418 5418 5417 5417 5417 5417 5417 5417 5417 5417 5417 5417 5417 5417 5417 5418 5418 5418 5418 5418
5454 5452 5450 5449 5448 5446 5445 5444 5442 5441 5440 5439 5438 5437 5435 5434 5434 5434 5433 5432 5431 5429 5429 5427 5426 5425 5424 5424 5423 5423 5422 5422 5422 5421 5420 5420 5419 5419 5419 5418 5418 5418 5417 5417 5416 5415 5415 5415 5415 5414 5414 5414 5414 5414 5414 5414 5415 5415 5415 5415 5415 5415 5415 5415 5415 5415 5415 5415 5414 5414 5414 5414 5414 5414 5414 5414 5414 5414 5414 5414 5414 5414 5414 5414 5415 5415
5449 5448 5446 5444 5443 5442 5441 5439 5438 5437 5436 5435 5434 5433 5432 5431 5431 5430 5429 5428 5427 5427 5426 5424 5424 5423 5422 5421 5420 5420 5420 5420 5419 5419 5418 5417 5416 5416 5415 5415 5414 5414 5413 5413 5412 5412 5411 5411 5411 5411 5411 5411 5411 5411 5411 5411 5412 5412 5412 5412 5412 5413 5413 5412 5412 5412 5412 5412 5412 5411 5411 5411 5411 5411 5411 5411 5411 5411 5411 5411 5411 5411 5411 5411 5412 5412
5445 5444 5442 5440 5439 5438 5437 5436 5435 5434 5432 5431 5430 5429 5429 5428 5427 5426 5425 5424 5424 5423 5423 5422 5421 5421 5420 5419 5418 5417 5417 5417 5417 5417 5416 5414 5414 5413 5412 5412 5411 5410 5410 5409 5409 5408 5408 5407 5407 5407 5407 5407 5407 5408 5408 5408 5409 5409 5409 5409 5409 5409 5409 5409 5409 5409 5409 5409 5409 5408 5408 5408 5408 5408 5408 5408 5408 5408 5408 5408 5408 5408 5408 5408 5408 5409
5440 5439 5438 5436 5435 5434 5433 5432 5431 5430 5429 5428 5427 5426 5425 5424 5423 5423 5422 5421 5420 5420 5419 5419 5418 5418 5417 5416 5415 5414 5414 5414 5414 5414 5413 5412 5411 5410 5409 5409 5409 5408 5407 5406 5405 5404 5404 5404 5404 5404 5404 5404 5404 5405 5405 5405 5406 5406 5406 5406 5406 5406 5406 5406 5406 5406 5405 5405 5405 5405 5405 5405 5405 5405 5405 5405 5405 5405 5405 5405 5405 5405 5405 5405 5405 5405
5435 5434 5433 5432 5431 5430 5429 5429 5427 5426 5425 5424 5423 5422 5421 5420 5419 5419 5419 5418 5417 5417 5416 5416 5415 5415 5414 5414 5413 5412 5411 5411 5411 5411 5411 5410 5409 5407 5407 5406 5406 5405 5404 5403 5402 5401 5401 5401 5401 5401 5401 5401 5401 5402 5402 5402 5403 5403 5403 5403 5403 5403 5403 5403 5403 5402 5402 5402 5402 5402 5402 5402 5402 5402 5402 5402 5402 5402 5402 5402 5402 5402 5402 5402 5402 5402
5430 5429 5428 5428 5427 5426 5425 5424 5423 5422 5421 5420 5419 5419 5418 5417 5417 5416 5415 5414 5414 5413 5413 5413 5413 5412 5412 5411 5410 5409 5409 5408 5408 5409 5409 5408 5407 5405 5404 5403 5403 5402 5401 5400 5399 5398 5398 5398 5398 5398 5398 5398 5399 5399 5399 5399 5400 5400 5400 5400 5400 5400 5400 5400 5399 5399 5399 5399 5399 5399 5399 5399 5399 5399 5399 5399 5399 5399 5399 5399 5399 5399 5399 5399 5399 5399
5425 5425 5425 5424 5423 5422 5421 5420 5419 5418 5417 5416 5415 5415 5414 5414 5413 5413 5412 5411 5411 5410 5409 5409 5409 5409 5409 5408 5407 5406 5405 5405 5405 5405 5405 5405 5405 5404 5402 5401 5400 5399 5399 5398 5397 5395 5395 5395 5395 5395 5395 5395 5396 5396 5396 5397 5397 5397 5397 5397 5397 5397 5397 5397 5396 5396 5396 5396 5396 5396 5396 5396 5396 5396 5396 5396 5396 5396 5396 5396 5396 5396 5396 5396 5396 5396
5421 5421 5421 5420 5419 5417 5416 5416 5415 5414 5413 5412 5411 5411 5410 5410 5409 5409 5409 5408 5407 5407 5406 5406 5406 5406 5405 5405 5404 5403 5402 5402 5402 5402 5402 5403 5403 5402 5400 5399 5398 5397 5396 5395 5394 5393 5392 5392 5392 5392 5393 5393 5393 5393 5393 5394 5394 5394 5394 5394 5394 5394 5394 5394 5394 5393 5393 5393 5393 5393 5393 5393 5393 5393 5393 5393 5393 5393 5393 5393 5393 5393 5393 5393 5393 5393
5417 5417 5417 5416 5415 5413 5412 5412 5411 5410 5409 5408 5407 5407 5406 5406 5405 5405 5405 5404 5404 5403 5403 5403 5402 5402 5402 5402 5401 5400 5399 5399 5398 5398 5399 5399 5399 5399 5398 5396 5395 5394 5394 5393 5392 5390 5390 5390 5390 5390 5390 5390 5390 5390 5390 5390 5391 5391 5391 5391 5391 5391 5391 5391 5391 5390 5390 5390 5390 5390 5390 5390 5390 5390 5390 5390 5390 5390 5390 5390 5390 5390 5390 5390 5390 5390
5414 5412 5412 5411 5410 5409 5408 5408 5407 5406 5404 5404 5403 5403 5402 5402 5401 5400 5400 5400 5400 5399 5399 5399 5399 5399 5399 5398 5398 5397 5396 5395 5394 5394 5394 5395 5395 5396 5396 5394 5392 5392 5392 5391 5389 5388 5387 5387 5387 5387 5387 5387 5387 5387 5387 5387 5388 5388 5388 5388 5388 5388 5388 5388 5388 5388 5388 5387 5387 5387 5387 5387 5387 5387 5388 5387 5387 5387 5387 5388 5388 5388 5388 5388 5388 5388
5410 5409 5408 5407 5406 5405 5404 5403 5403 5402 5401 5400 5399 5399 5398 5398 5397 5396 5396 5396 5396 5395 5395 5395 5395 5395 5394 5394 5394 5394 5393 5392 5391 5391 5391 5390 5391 5392 5392 5391 5389 5389 5389 5388 5387 5386 5385 5385 5385 5385 5384 5384 5384 5384 5384 5384 5384 5385 5385 5385 5385 5385 5385 5385 5385 5385 5385 5385 5385 5385 5385 5384 5384 5384 5384 5384 5384 5384 5384 5384 5385 5385 5385 5385 5385 5385
5405 5404 5404 5403 5402 5401 5400 5399 5399 5398 5397 5397 5396 5395 5395 5394 5394 5393 5393 5393 5392 5392 5392 5392 5391 5391 5391 5391 5390 5390 5389 5389 5388 5388 5387 5387 5387 5388 5389 5388 5387 5386 5386 5386 5384 5383 5383 5383 5383 5382 5382 5381 5381 5381 5381 5381 5381 5381 5382 5382 5382 5382 5382 5382 5382 5382 5382 5382 5382 5382 5382 5382 5382 5382 5382 5382 5382 5382 5382 5382 5382 5382 5382 5382 5382 5382
5402 5401 5400 5399 5398 5397 5397 5396 5396 5394 5394 5393 5392 5391 5391 5391 5390 5390 5389 5389 5389 5388 5388 5388 5387 5387 5387 5387 5387 5386 5386 5385 5385 5384 5384 5383 5384 5384 5385 5384 5383 5382 5382 5382 5382 5381 5380 5380 5380 5380 5379 5379 5378 5378 5377 5378 5378 5378 5378 5379 5379 5379 5379 5379 5379 5379 5379 5379 5379 5379 5379 5379 5379 5379 5379 5379 5379 5379 5379 5379 5379 5379 5379 5379 5379 5379
5399 5398 5397 5395 5394 5394 5394 5393 5392 5391 5390 5389 5388 5387 5386 5386 5386 5385 5385 5385 5385 5385 5384 5384 5383 5383 5383 5383 5383 5382 5382 5382 5381 5380 5380 5380 5379 5380 5381 5380 5379 5379 5379 5379 5379 5378 5378 5378 5378 5377 5376 5375 5375 5374 5374 5374 5374 5375 5375 5375 5376 5376 5376 5376 5377 5377 5377 5377 5377 5377 5377 5377 5377 5377 5377 5376 5376 5377 5377 5377 5377 5377 5377 5377 5377 5377
5394 5393 5392 5391 5390 5389 5389 5388 5387 5387 5386 5385 5384 5384 5383 5382 5382 5381 5381 5381 5381 5381 5380 5379 5379 5379 5379 5379 5378 5378 5378 5378 5377 5377 5377 5376 5376 5376 5376 5376 5375 5374 5374 5375 5375 5375 5375 5375 5375 5375 5374 5373 5372 5371 5371 5371 5371 5371 5372 5372 5372 5373 5373 5374 5374 5374 5374 5374 5374 5374 5374 5374 5374 5374 5374 5374 5374 5374 5374 5374 5374 5374 5374 5374 5374 5374
5390 5389 5389 5388 5387 5386 5385 5384 5384 5384 5383 5382 5381 5380 5379 5379 5378 5377 5377 5377 5377 5376 5375 5375 5374 5374 5374 5374 5374 5374 5374 5374 5374 5373 5373 5372 5372 5372 5373 5372 5371 5371 5371 5371 5372 5372 5372 5372 5372 5372 5371 5370 5369 5369 5368 5368 5368 5368 5368 5369 5369 5369 5370 5370 5371 5371 5371 5372 5372 5372 5372 5372 5371 5371 5371 5371 5371 5371 5371 5371 5371 5371 5371 5371 5371 5371
5387 5386 5385 5384 5384 5383 5382 5381 5381 5380 5379 5379 5378 5377 5376 5375 5374 5374 5374 5374 5373 5372 5371 5371 5371 5370 5370 5370 5370 5370 5370 5370 5370 5369 5368 5368 5368 5368 5369 5368 5368 5367 5367 5367 5368 5369 5369 5369 5369 5368 5368 5367 5367 5366 5365 5365 5364 5364 5365 5365 5365 5366 5367 5367 5368 5368 5369 5369 5369 5369 5369 5369 5369 5369 5369 5369 5369 5369 5369 5369 5369 5369 5369 5369 5369 5369
5384 5383 5382 5381 5380 5379 5378 5378 5377 5377 5376 5375 5374 5373 5372 5371 5371 5370 5370 5370 5369 5368 5367 5367 5367 5366 5366 5366 5365 5365 5366 5366 5366 5365 5364 5364 5363 5364 5364 5364 5364 5364 5364 5363 5363 5364 5365 5366 5366 5365 5364 5364 5364 5363 5362 5362 5362 5361 5361 5362 5362 5362 5363 5364 5365 5365 5366 5366 5367 5367 5366 5366 5366 5366 5366 5366 5366 5366 5366 5366 5367 5367 5367 5367 5366 5366
5381 5380 5379 5378 5376 5375 5374 5374 5373 5373 5372 5371 5370 5369 5369 5368 5367 5366 5366 5365 5365 5364 5364 5363 5363 5363 5362 5362 5362 5361 5362 5362 5362 5362 5361 5360 5359 5360 5361 5360 5360 5360 5360 5359 5359 5360 5362 5363 5363 5362 5361 5361 5360 5360 5360 5359 5359 5359 5358 5358 5358 5359 5359 5360 5362 5363 5363 5364 5364 5364 5364 5364 5364 5364 5364 5364 5364 5364 5364 5364 5364 5364 5364 5364 5364 5364
5377 5376 5375 5374 5373 5372 5371 5370 5369 5369 5368 5367 5367 5366 5365 5364 5363 5363 5362 5362 5361 5361 5360 5359 5359 5359 5359 5358 5358 5358 5358 5358 5358 5358 5357 5356 5356 5356 5357 5356 5356 5357 5357 5357 5356 5356 5357 5359 5360 5360 5359 5358 5358 5358 5357 5357 5356 5356 5355 5355 5355 5355 5356 5357 5358 5359 5360 5361 5361 5361 5361 5361 5361 5361 5361 5361 5361 5361 5362 5362 5362 5362 5362 5362 5362 5362
5373 5373 5372 5371 5370 5369 5368 5367 5366 5365 5364 5364 5363 5362 5361 5361 5360 5359 5359 5358 5357 5357 5356 5356 5355 5355 5355 5354 5354 5354 5354 5355 5354 5354 5353 5352 5352 5352 5353 5353 5353 5353 5353 5353 5353 5353 5354 5355 5356 5356 5356 5356 5355 5355 5355 5354 5354 5353 5353 5352 5352 5352 5352 5353 5355 5356 5357 5358 5359 5359 5359 5359 5359 5359 5359 5359 5359 5359 5359 5359 5359 5360 5360 5360 5360 5360
5370 5369 5369 5368 5367 5365 5364 5364 5363 5362 5361 5360 5359 5359 5358 5357 5357 5356 5355 5354 5354 5353 5353 5353 5352 5352 5351 5351 5351 5351 5351 5351 5351 5350 5349 5349 5348 5348 5349 5349 5349 5349 5349 5349 5349 5350 5350 5351 5352 5352 5353 5353 5353 5353 5352 5352 5351 5350 5350 5349 5349 5349 5349 5350 5351 5353 5354 5355 5356 5356 5356 5356 5356 5356 5357 5357 5357 5357 5357 5357 5357 5358 5358 5358 5358 5358
5367 5366 5365 5364 5363 5362 5361 5360 5359 5359 5358 5357 5356 5355 5355 5354 5354 5353 5352 5351 5351 5350 5349 5349 5349 5348 5348 5348 5347 5347 5348 5348 5348 5347 5346 5345 5345 5344 5344 5344 5345 5345 5345 5345 5345 5346 5346 5347 5348 5349 5349 5350 5350 5350 5350 5349 5349 5348 5347 5346 5346 5346 5346 5347 5348 5349 5351 5352 5353 5353 5353 5354 5354 5354 5354 5354 5354 5354 5355 5355 5355 5355 5356 5356 5356 5356
5363 5363 5362 5361 5360 5359 5358 5358 5357 5356 5355 5354 5353 5352 5352 5351 5350 5350 5349 5349 5348 5347 5346 5345 5345 5345 5344 5344 5344 5344 5344 5344 5344 5343 5342 5341 5341 5340 5340 5340 5341 5341 5341 5341 5341 5342 5342 5343 5344 5345 5345 5346 5346 5347 5347 5346 5345 5345 5344 5344 5343 5343 5343 5344 5345 5346 5348 5349 5349 5350 5351 5351 5351 5352 5352 5352 5352 5352 5353 5353 5353 5353 5354 5354 5354 5354
5360 5359 5359 5358 5357 5356 5355 5354 5354 5353 5352 5351 5350 5349 5349 5348 5347 5347 5346 5345 5344 5344 5343 5342 5342 5341 5340 5340 5340 5340 5340 5340 5340 5339 5339 5338 5337 5336 5336 5336 5336 5337 5336 5336 5337 5337 5338 5338 5339 5340 5341 5342 5343 5343 5343 5343 5343 5342 5342 5341 5340 5340 5340 5340 5341 5343 5344 5345 5346 5347 5348 5348 5349 5349 5349 5349 5349 5350 5350 5351 5351 5351 5352 5352 5352 5352
5356 5356 5355 5354 5354 5353 5352 5352 5351 5350 5349 5348 5347 5347 5346 5345 5344 5343 5343 5342 5341 5340 5339 5339 5338 5338 5337 5337 5336 5336 5336 5336 5336 5336 5335 5334 5333 5333 5332 5332 5332 5333 5333 5332 5332 5333 5333 5334 5334 5335 5336 5337 5338 5339 5339 5339 5339 5339 5339 5339 5338 5337 5337 5337 5338 5339 5341 5342 5343 5344 5345 5345 5346 5347 5347 5347 5347 5348 5348 5349 5349 5349 5349 5350 5350 5350
5353 5352 5352 5351 5350 5350 5349 5349 5348 5347 5346 5345 5344 5343 5342 5341 5341 5340 5339 5338 5338 5337 5336 5335 5335 5334 5334 5333 5333 5332 5332 5331 5331 5331 5330 5329 5329 5329 5329 5328 5329 5329 5329 5329 5328 5328 5329 5329 5329 5330 5331 5332 5333 5334 5334 5334 5335 5335 5335 5335 5335 5335 5334 5334 5335 5336 5338 5339 5340 5341 5342 5343 5344 5344 5344 5344 5345 5345 5346 5346 5347 5347 5348 5348 5348 5349
5349 5349 5349 5348 5347 5347 5346 5345 5344 5344 5343 5342 5341 5340 5339 5338 5337 5336 5336 5335 5334 5333 5333 5332 5331 5331 5330 5329 5329 5328 5328 5327 5326 5326 5325 5325 5324 5324 5324 5324 5324 5325 5324 5324 5324 5324 5324 5324 5325 5325 5326 5327 5328 5329 5329 5330 5331 5331 5332 5332 5332 5332 5331 5331 5332 5333 5334 5336 5337 5338 5339 5340 5341 5342 5342 5342 5343 5343 5344 5344 5345 5345 5345 5346 5346 5347
5346 5346 5345 5345 5344 5343 5343 5342 5341 5340 5339 5339 5338 5337 5335 5335 5334 5333 5332 5332 5331 5330 5329 5328 5328 5327 5327 5326 5325 5324 5323 5322 5322 5321 5320 5320 5320 5320 5320 5320 5320 5320 5320 5320 5320 5320 5320 5320 5320 5321 5321 5322 5323 5324 5325 5326 5327 5327 5328 5328 5329 5329 5329 5328 5329 5329 5331 5332 5334 5335 5336 5337 5338 5339 5339 5340 5340 5341 5341 5342 5343 5343 5344 5344 5344 5345
5343 5343 5342 5342 5341 5340 5339 5338 5337 5336 5336 5335 5334 5333 5332 5331 5330 5330 5329 5328 5327 5326 5325 5324 5324 5323 5323 5322 5321 5320 5319 5318 5317 5317 5316 5316 5316 5315 5315 5315 5315 5315 5315 5315 5315 5315 5316 5316 5316 5316 5317 5317 5318 5319 5320 5321 5323 5324 5324 5325 5325 5325 5325 5325 5325 5326 5328 5329 5331 5332 5334 5335 5336 5336 5337 5338 5338 5339 5339 5340 5340 5341 5341 5342 5343 5343
5340 5340 5339 5338 5337 5336 5335 5334 5334 5333 5332 5331 5330 5329 5328 5327 5326 5326 5325 5324 5323 5322 5321 5320 5319 5319 5318 5317 5316 5315 5314 5313 5313 5312 5312 5312 5311 5311 5311 5311 5311 5311 5311 5311 5311 5311 5312 5312 5312 5312 5312 5313 5314 5314 5315 5317 5319 5320 5321 5321 5321 5321 5321 5322 5322 5323 5324 5326 5328 5329 5330 5332 5333 5334 5334 5335 5335 5336 5337 5337 5338 5339 5339 5340 5341 5341
5338 5337 5336 5335 5334 5333 5332 5331 5330 5329 5328 5327 5326 5325 5324 5323 5322 5321 5320 5320 5319 5318 5317 5316 5315 5315 5314 5313 5312 5311 5310 5309 5308 5308 5307 5307 5307 5307 5306 5306 5306 5306 5306 5307 5307 5307 5307 5307 5307 5308 5308 5309 5309 5310 5311 5313 5314 5316 5317 5317 5318 5318 5318 5318 5319 5320 5321 5323 5324 5326 5328 5329 5330 5331 5332 5333 5333 5334 5334 5335 5336 5337 5337 5338 5339 5340
5334 5334 5333 5331 5330 5329 5328 5327 5326 5325 5324 5323 5322 5321 5320 5319 5318 5317 5317 5316 5315 5314 5313 5313 5312 5311 5310 5309 5308 5307 5306 5305 5304 5303 5303 5302 5302 5302 5302 5302 5302 5302 5302 5302 5302 5302 5303 5303 5303 5304 5304 5304 5305 5306 5308 5309 5310 5312 5313 5313 5313 5314 5314 5315 5316 5317 5318 5320 5321 5323 5325 5326 5328 5329 5329 5330 5331 5332 5332 5333 5334 5334 5335 5336 5337 5338
5331 5330 5329 5328 5327 5326 5325 5324 5323 5322 5320 5319 5318 5317 5316 5315 5314 5314 5313 5312 5311 5310 5309 5309 5308 5306 5305 5305 5304 5303 5302 5300 5299 5299 5298 5297 5297 5297 5297 5297 5297 5297 5297 5297 5297 5298 5298 5299 5299 5299 5300 5300 5301 5302 5304 5305 5306 5307 5308 5309 5309 5310 5310 5311 5312 5314 5315 5317 5318 5320 5322 5324 5325 5326 5327 5328 5329 5329 5330 5331 5332 5332 5333 5334 5335 5336
5327 5326 5325 5324 5324 5322 5321 5320 5319 5318 5317 5316 5315 5314 5313 5312 5311 5310 5309 5308 5307 5306 5305 5304 5303 5302 5301 5300 5299 5298 5297 5296 5295 5294 5293 5293 5292 5292 5292 5292 5292 5292 5292 5292 5293 5293 5293 5294 5294 5295 5296 5297 5298 5299 5300 5301 5302 5303 5304 5304 5305 5306 5307 5308 5309 5310 5312 5314 5315 5317 5319 5321 5322 5324 5324 5325 5326 5327 5328 5329 5329 5330 5331 5332 5334 5334
5324 5323 5322 5321 5320 5319 5318 5317 5316 5315 5314 5313 5311 5310 5309 5308 5307 5306 5305 5304 5303 5302 5300 5299 5298 5297 5296 5295 5294 5293 5292 5291 5290 5289 5288 5287 5287 5286 5286 5286 5286 5287 5287 5287 5288 5288 5289 5289 5290 5291 5292 5293 5294 5295 5296 5297 5298 5299 5300 5300 5301 5302 5303 5304 5306 5307 5309 5311 5313 5314 5316 5318 5319 5321 5322 5323 5324 5325 5326 5327 5327 5328 5329 5330 5332 5333
5321 5320 5319 5318 5317 5316 5315 5314 5313 5312 5310 5309 5308 5307 5305 5304 5303 5302 5300 5299 5298 5297 5296 5294 5293 5292 5291 5289 5289 5288 5287 5286 5285 5284 5283 5282 5282 5281 5281 5281 5281 5282 5282 5282 5283 5284 5284 5285 5285 5287 5288 5289 5290 5291 5292 5293 5294 5295 5296 5297 5298 5299 5300 5301 5303 5304 5306 5308 5310 5312 5314 5315 5317 5318 5319 5320 5321 5322 5324 5324 5325 5326 5327 5329 5330 5331
5319 5318 5316 5315 5314 5313 5312 5311 5309 5308 5307 5305 5304 5303 5301 5300 5298 5297 5296 5295 5293 5292 5291 5289 5288 5287 5285 5284 5283 5282 5281 5280 5280 5279 5278 5278 5277 5277 5276 5276 5277 5277 5277 5278 5279 5279 5280 5281 5281 5283 5284 5285 5287 5288 5289 5289 5291 5292 5293 5294 5295 5296 5297 5299 5300 5302 5304 5305 5307 5309 5311 5312 5314 5315 5317 5318 5319 5320 5321 5322 5324 5324 5325 5327 5328 5329
5315 5314 5314 5312 5311 5310 5309 5307 5306 5304 5303 5302 5300 5299 5297 5295 5294 5292 5291 5290 5289 5287 5286 5284 5283 5282 5281 5279 5279 5278 5277 5276 5275 5274 5274 5273 5273 5273 5272 5272 5272 5273 5273 5274 5274 5275 5276 5277 5278 5279 5280 5282 5283 5284 5285 5286 5288 5289 5289 5290 5292 5293 5294 5296 5298 5299 5301 5303 5305 5307 5308 5310 5311 5313 5314 5315 5316 5318 5319 5320 5321 5323 5324 5325 5326 5327